Regional Weather Roundup
Issued by NWS

Home | Current Version | Previous Version | Text Only | Print | Product List | Glossary On
Versions: 1 2 3 4 5 6 7 8 9 10 11 12 13 14 15 16 17 18 19 20 21 22 23 24 25 26 27 28 29 30 31 32 33 34 35 36 37 38 39 40 41 42 43 44 45 46 47 48 49 50
000
ASUS45 KABQ 201601
RWRNM
NEW MEXICO REGIONAL WEATHER ROUNDUP
NATIONAL WEATHER SERVICE ALBUQUERQUE NM
1000 AM MDT SUN MAY 20 2018

NOTE: "FAIR" MEANS FEW OR NO CLOUDS BELOW 12,000 FEET AGL WITH NO
       SIGNIFICANT WEATHER OR OBSTRUCTIONS TO VISION.

      THIS PRODUCT IS RELEASED AS TWO VERSIONS.  ONE VERSION NEAR
      THE TOP OF THE HOUR CONTAINING PRELIMINARY DATA FROM ALBUQUERQUE
      AND OTHER STATIONS.  A FINAL VERSION WITH ADDITIONAL DATA IS
      ISSUED ABOUT 10 MINUTES AFTER THE HOUR.

NMZ501-503-504-510>518-201700-
NORTHWEST PLATEAU/NORTHCENTRAL MOUNTAINS

CITY           SKY/WX    TMP DP  RH WIND       PRES   REMARKS
FARMINGTON     FAIR      69  29  22 SE13      30.07R
LOS ALAMOS     FAIR      56  37  48 S18G26    30.27S
SANTA FE       FAIR      62  40  44 SE23G33   30.22R
TAOS           FAIR      62  36  37 VRB3      30.25F
ANGEL FIRE     FAIR      55  36  48 S17G23    30.30F

$$
NMZ402-403-502-505>509-201700-
WESTCENTRAL MOUNTAINS/SOUTHWEST MOUNTAINS

CITY           SKY/WX    TMP DP  RH WIND       PRES   REMARKS
GALLUP         FAIR      68  14  12 VRB6      30.14S
GRANTS         FAIR      64  35  33 SE17G24   30.19F
SILVER CITY    PTSUNNY   73  11   9 SE15      30.10R

$$
NMZ407-409-411-412-201700-
SOUTHERN DESERTS

CITY           SKY/WX    TMP DP  RH WIND       PRES   REMARKS
DEMING         FAIR      74  18  12 E14       30.06R
LAS CRUCES     FAIR      76  42  30 SE21G28   30.09R
HOLLOMAN AFB   FAIR      77  39  26 SW15      30.09S
ALAMOGORDO     FAIR      73  39  29 SW6       30.09R
T OR C         FAIR      72  41  32 N14       30.09R

$$
NMZ519>523-201700-
CENTRAL VALLEYS/CENTRAL HIGHLANDS

CITY           SKY/WX    TMP DP  RH WIND       PRES   REMARKS
ALBUQUERQUE    FAIR      64  41  42 E21G31    30.17R
MORIARTY ARPT  CLOUDY    61  43  52 SE12      30.27F
CLINES CORNERS PTSUNNY   52  40  63 E21G30    30.28F
BELEN          FAIR      67  37  32 NE3       30.15S
SOCORRO        FAIR      69  39  33 N3        30.14S

$$
NMZ524>526-539-540-201700-
SOUTHCENTRAL MOUNTAINS

CITY           SKY/WX    TMP DP  RH WIND       PRES   REMARKS
RUIDOSO        NOT AVBL

$$
NMZ527>531-201700-
NORTHEAST HIGHLANDS/NORTHEAST PLAINS

CITY           SKY/WX    TMP DP  RH WIND       PRES   REMARKS
LAS VEGAS      CLOUDY    53  40  61 SE10      30.29F
RATON          FAIR      58  39  49 S8        30.24F
CLAYTON        CLOUDY    55  43  63 N15       30.23R

$$
NMZ532>537-201700-
EASTCENTRAL PLAINS

CITY           SKY/WX    TMP DP  RH WIND       PRES   REMARKS
SANTA ROSA     PTSUNNY   58  43  57 NE7       30.23F
TUCUMCARI      PTSUNNY   59  45  59 NE12      30.21F
CANNON AFB     CLOUDY    55  53  94 NE14      30.22F
CLOVIS AIRPORT CLOUDY    54  46  74 NE14      30.23S

$$
NMZ028-029-538-201700-
SOUTHEAST PLAINS

CITY           SKY/WX    TMP DP  RH WIND       PRES   REMARKS
ROSWELL        PTSUNNY   66  48  52 NE10G18   30.17F
ARTESIA        CLOUDY    66  48  52 NE9G15    30.18S
CARLSBAD       FAIR      70  51  51 N10       30.14S
HOBBS          CLOUDY    63  54  72 NE9       30.16R


$$




USA.gov is the U.S. government's official web portal to all federal, state and local government web resources and services.